[[{"header":{"parameterUnit":"m.s-1","parameterCategory":1,"la1":30.2991,"la2":30.254,"lo1":-89.0895,"lo2":-89.0444,"dy":0.0017,"dx":0.0017,"nx":28,"ny":28,"refTime":"2024-04-03T09:00:00:Z","depth":0,"parameterNumber":2,"parameterNumberName":"U-component_of_WINDS"},"data":[0,0,0,0,0,0,0,0,0,0,0,0,0,0,0,0,0,0,0,0,0,0,0,0,0,0,0,0,0,0,0,0,0,0,0,0,0,0,0,0,0,0,0,0,0,0,0,0,0,0,0,0,0,0,0,0,0,0,3.4563,3.4565,0,3.4697,3.4699,3.47,3.4648,3.4645,3.4642,3.4639,3.4781,3.4787,3.4794,0,0,0,0,0,0,0,0,0,0,0,0,0,3.4268,3.4273,3.4563,3.4565,3.4567,3.4697,3.4699,3.4701,3.4649,3.4645,3.4641,3.4638,3.4778,3.4786,3.4794,0,0,0,0,0,0,0,0,0,0,0,0,0,3.4399,3.4275,3.4563,3.4556,3.4557,3.4697,3.4699,3.4701,3.4649,3.4645,3.464,3.4636,3.4776,3.4786,3.4795,3.4951,0,0,3.4826,3.483,0,0,0,0,0,0,0,0,3.4391,3.4409,3.4556,3.4557,3.4558,3.4651,3.4647,3.4785,3.4651,3.4615,3.4639,3.4633,3.4742,3.4754,3.479,3.4958,3.4964,3.4827,3.4833,3.4837,3.484,0,0,0,0,0,0,0,3.4382,3.4403,3.4616,3.4558,3.4559,3.4548,3.4562,3.4673,3.4703,3.4617,3.4614,3.463,3.4741,3.478,3.4793,3.4966,3.4827,3.4836,3.4842,3.4846,3.5271,3.5276,0,0,0,0,0,0,3.4372,3.4396,3.4612,3.462,3.4461,3.4557,3.4572,3.4626,3.4701,3.4708,3.4634,3.4627,3.4765,3.4781,3.4797,3.4986,3.4837,3.4847,3.4852,3.5265,3.5272,3.5277,0,0,0,0,0,0,3.4366,3.4392,3.4607,3.4507,3.4534,3.4567,3.4628,3.4631,3.467,3.4714,3.472,3.4668,3.4762,3.4783,3.4913,3.499,3.4851,3.486,3.5259,3.5267,3.5275,3.5363,0,0,0,0,0,0,3.4358,3.439,3.4448,3.4509,3.4539,3.4719,3.4633,3.4637,3.4687,3.4679,3.4747,3.4754,3.476,3.4899,3.4923,3.5001,3.4868,3.5252,3.5263,3.5272,3.5353,3.5373,3.539,0,0,0,0,0,3.4347,3.4468,3.4451,3.4478,3.4613,3.4724,3.4741,3.4744,3.4693,3.4753,3.4781,3.4752,3.4978,3.4912,3.494,3.5022,3.5248,3.526,3.5271,3.5345,3.5369,3.5389,0,0,0,0,0,0,3.4416,3.4476,3.4458,3.4602,3.4658,3.4714,3.479,3.4769,3.4842,3.4832,3.4835,3.4851,3.4985,3.5017,3.4943,3.5177,3.5105,3.5123,3.5152,3.5175,3.5193,3.5183,3.4876,0,0,0,0,0,3.4448,3.4532,3.458,3.4702,3.4731,3.4756,3.4804,3.4802,3.4861,3.4885,3.4923,3.4983,3.5067,3.5123,3.5203,3.5358,3.5373,3.5428,3.5446,3.5461,3.5476,3.5562,3.5588,3.5316,3.5316,3.5316,0,0,3.4515,3.4558,3.4611,3.4717,3.476,3.4849,3.4776,3.4872,3.4938,3.49,3.5025,3.5055,3.5122,3.5266,3.5331,3.5296,3.5555,3.5476,3.5487,3.5495,3.5577,3.5603,3.5626,3.5324,3.5323,3.5322,0,0,3.4682,3.4722,3.4829,3.4874,3.494,3.4956,3.4982,3.5042,3.506,3.5185,3.5159,3.5239,3.5383,3.5433,3.5477,3.5664,3.564,3.5691,3.5785,3.5869,3.5891,3.591,3.5978,3.6002,3.5706,3.5706,3.5706,0,3.4757,3.4887,3.4887,3.4986,3.5034,3.5003,3.5112,3.5156,3.5246,3.5281,3.524,3.5422,3.5465,3.5621,3.5666,3.5703,3.5734,3.5683,3.5887,3.5906,3.5924,3.5989,3.6015,3.5712,3.5711,3.5711,3.571,0,3.4977,3.5068,3.5147,3.5233,3.529,3.5394,3.5412,3.547,3.5464,3.5485,3.5614,3.5664,3.5754,3.5791,3.5786,3.5947,3.5923,3.5885,3.5813,3.5956,3.6017,3.6042,3.572,3.5718,3.5716,3.5715,0,0,3.519,3.5276,3.5305,3.5344,3.5415,3.5487,3.559,3.5677,3.5728,3.5792,3.588,3.6004,3.5969,3.6019,3.602,3.6093,3.624,3.6046,3.6048,3.6081,3.6423,3.6451,3.648,3.6225,3.623,3.6233,3.6417,0,3.5363,3.5543,3.5546,3.5712,3.5797,3.5769,3.5859,3.5914,3.5937,3.6014,3.604,3.6128,3.6075,3.6105,3.6177,3.6207,3.6309,3.6194,3.6309,3.6313,3.6293,3.6512,3.6542,3.6713,3.6441,3.6445,3.6448,0,3.5589,3.5659,3.5832,3.5892,3.5928,3.6009,3.609,3.6164,3.6226,3.6238,3.6294,3.6284,3.6392,3.6316,3.6466,3.6387,3.6435,3.6457,3.6464,3.6475,3.6389,3.6529,3.6767,3.6793,3.6486,3.6483,3.648,0,3.5728,3.5866,3.5988,3.6022,3.6095,3.6153,3.6187,3.6244,3.6297,3.6369,3.6403,3.6487,3.6533,3.6599,3.6613,3.6556,3.6764,3.6688,3.6778,3.6778,3.6823,3.682,3.7072,3.6853,3.6852,3.6852,3.6851,0,3.5922,3.6029,3.6051,3.6126,3.6247,3.6251,3.6371,3.64,3.6452,3.6534,3.6516,3.6593,3.6606,3.6687,3.6699,3.6822,3.6843,3.6857,3.6859,3.6859,3.6857,3.689,3.6879,3.6858,3.6857,3.6856,3.6854,0,3.6098,3.6117,3.6248,3.6306,3.6324,3.641,3.6461,3.6534,3.6555,3.6659,3.6684,3.6717,3.6812,3.6832,3.6945,3.6953,3.71,3.7089,3.7078,3.7077,3.7166,3.7158,3.7449,3.7488,3.7242,3.7244,3.7246,0,3.622,3.6302,3.6369,3.6422,3.6458,3.6543,3.6597,3.6605,3.6662,3.674,3.6805,3.6897,3.6971,3.7125,3.716,3.7247,3.7239,3.7336,3.7252,3.725,3.7242,3.7237,3.7246,3.7351,3.7354,3.7356,3.7358,0,3.6435,3.6441,3.6517,3.6599,3.6663,3.6728,3.6789,3.6834,3.6851,3.6917,3.7013,3.707,3.7185,3.7278,3.7365,3.7402,3.7384,3.7384,3.7409,3.741,3.7401,3.7408,3.7122,3.7377,3.7375,3.7374,3.7373,3.7372,3.6589,3.6661,3.6719,3.6807,3.6854,3.6912,3.6984,3.7013,3.7093,3.7186,3.7187,3.7292,3.7355,3.747,3.7512,3.7596,3.7566,3.7603,3.7612,3.7621,3.763,3.7387,3.7612,3.7611,3.7611,3.761,3.761,0,3.6803,3.684,3.692,3.7006,3.7076,3.7051,3.7119,3.7179,3.7271,3.733,3.7403,3.7515,3.7605,3.7649,3.7738,3.7798,3.7792,3.7821,3.7817,3.7826,3.7651,3.762,3.7824,3.7824,3.7824,3.7824,3.7824,3.7824,3.6923,3.7044,3.7057,3.7202,3.7239,3.7341,3.7382,3.7436,3.7483,3.7608,3.7682,3.7709,3.7763,3.7857,3.7939,3.795,3.7984,3.8018,3.8025,3.786,3.7838,3.7817,3.7789,3.8025,3.8025,3.8193,3.8195,3.8196]},{"header":{"parameterUnit":"m.s-1","parameterCategory":1,"la1":30.2991,"la2":30.254,"lo1":-89.0895,"lo2":-89.0444,"dy":0.0017,"dx":0.0017,"nx":28,"ny":28,"refTime":"2024-04-03T09:00:00:Z","depth":0,"parameterNumber":3,"parameterNumberName":"V-component_of_WINDS"},"data":[0,0,0,0,0,0,0,0,0,0,0,0,0,0,0,0,0,0,0,0,0,0,0,0,0,0,0,0,0,0,0,0,0,0,0,0,0,0,0,0,0,0,0,0,0,0,0,0,0,0,0,0,0,0,0,0,0,0,-0.3411,-0.3412,0,-0.3471,-0.3471,-0.3472,-0.3506,-0.3506,-0.3506,-0.3506,-0.3569,-0.357,-0.3572,0,0,0,0,0,0,0,0,0,0,0,0,0,-0.3328,-0.3329,-0.3411,-0.3412,-0.3412,-0.3471,-0.3471,-0.3472,-0.3506,-0.3506,-0.3506,-0.3506,-0.3568,-0.357,-0.3572,0,0,0,0,0,0,0,0,0,0,0,0,0,-0.3374,-0.333,-0.3411,-0.3436,-0.3439,-0.347,-0.3471,-0.3472,-0.3505,-0.3506,-0.3506,-0.3506,-0.3568,-0.357,-0.3572,-0.3584,0,0,-0.358,-0.3581,0,0,0,0,0,0,0,0,-0.3371,-0.3377,-0.3432,-0.3434,-0.3438,-0.3481,-0.3465,-0.351,-0.3505,-0.348,-0.3506,-0.3506,-0.354,-0.3544,-0.3555,-0.3587,-0.359,-0.358,-0.3581,-0.3582,-0.3583,0,0,0,0,0,0,0,-0.3368,-0.3374,-0.3435,-0.3432,-0.3436,-0.3445,-0.3452,-0.3474,-0.3508,-0.3482,-0.3485,-0.3492,-0.3541,-0.3553,-0.3557,-0.3591,-0.358,-0.3582,-0.3583,-0.3584,-0.3636,-0.3636,0,0,0,0,0,0,-0.336,-0.3371,-0.3433,-0.3436,-0.3404,-0.3446,-0.3454,-0.3467,-0.3508,-0.3515,-0.3491,-0.3493,-0.3549,-0.3554,-0.3559,-0.3576,-0.3582,-0.3584,-0.3586,-0.3636,-0.3636,-0.3636,0,0,0,0,0,0,-0.3358,-0.3365,-0.343,-0.3405,-0.3414,-0.3448,-0.3462,-0.3468,-0.3479,-0.3515,-0.3521,-0.3497,-0.3549,-0.3556,-0.3578,-0.3579,-0.3586,-0.3588,-0.3636,-0.3636,-0.3636,-0.3609,0,0,0,0,0,0,-0.3356,-0.3365,-0.3369,-0.3404,-0.3415,-0.3447,-0.3462,-0.3469,-0.3483,-0.3486,-0.3522,-0.3528,-0.355,-0.3574,-0.358,-0.3582,-0.359,-0.3636,-0.3636,-0.3636,-0.361,-0.3608,-0.3606,0,0,0,0,0,-0.3353,-0.3359,-0.3369,-0.3376,-0.3421,-0.3447,-0.3453,-0.3477,-0.3483,-0.3488,-0.3511,-0.3527,-0.3577,-0.3576,-0.3583,-0.3586,-0.3636,-0.3636,-0.3636,-0.3611,-0.3608,-0.3606,0,0,0,0,0,0,-0.3323,-0.3364,-0.3375,-0.3393,-0.3416,-0.3452,-0.3459,-0.3474,-0.3496,-0.3498,-0.3528,-0.3536,-0.3555,-0.3573,-0.357,-0.36,-0.3608,-0.361,-0.3587,-0.3585,-0.3583,-0.3579,-0.3592,0,0,0,0,0,-0.3319,-0.3336,-0.3371,-0.3384,-0.3395,-0.3425,-0.3437,-0.3454,-0.3479,-0.3489,-0.3514,-0.3538,-0.356,-0.3574,-0.3595,-0.3613,-0.3621,-0.3618,-0.3616,-0.3615,-0.3616,-0.3627,-0.3626,-0.3635,-0.3635,-0.3635,0,0,-0.331,-0.3334,-0.3343,-0.3378,-0.3398,-0.3416,-0.3433,-0.3451,-0.3465,-0.3492,-0.3514,-0.3533,-0.3563,-0.3582,-0.3592,-0.3598,-0.3615,-0.3615,-0.3613,-0.3615,-0.3627,-0.3626,-0.3625,-0.3635,-0.3635,-0.3635,0,0,-0.3302,-0.3323,-0.3335,-0.3355,-0.3384,-0.3404,-0.3407,-0.3442,-0.3455,-0.3477,-0.3499,-0.3516,-0.3552,-0.3572,-0.3587,-0.3588,-0.3604,-0.3595,-0.3585,-0.3596,-0.3595,-0.3595,-0.3595,-0.3595,-0.3595,-0.3595,-0.3595,0,-0.3288,-0.3315,-0.334,-0.3357,-0.3372,-0.3398,-0.3411,-0.3429,-0.3464,-0.3475,-0.348,-0.3526,-0.3548,-0.3573,-0.3573,-0.3584,-0.359,-0.3591,-0.3593,-0.3593,-0.3593,-0.3594,-0.3594,-0.3594,-0.3594,-0.3594,-0.3594,0,-0.3295,-0.3314,-0.3321,-0.3354,-0.337,-0.3385,-0.3413,-0.3426,-0.3442,-0.3462,-0.3485,-0.3511,-0.3539,-0.3547,-0.3562,-0.3574,-0.3576,-0.3587,-0.3597,-0.359,-0.3591,-0.3592,-0.3592,-0.3593,-0.3593,-0.3593,0,0,-0.3271,-0.3318,-0.332,-0.3335,-0.337,-0.3385,-0.3402,-0.3428,-0.3439,-0.3463,-0.3478,-0.3509,-0.3519,-0.3536,-0.3554,-0.3563,-0.3563,-0.3573,-0.3574,-0.357,-0.3578,-0.357,-0.357,-0.3573,-0.3573,-0.3574,-0.3576,0,-0.3269,-0.3299,-0.3323,-0.3344,-0.3362,-0.3387,-0.3401,-0.3425,-0.3444,-0.3462,-0.3484,-0.3505,-0.3516,-0.3527,-0.3537,-0.356,-0.3565,-0.3561,-0.3588,-0.3589,-0.358,-0.357,-0.3562,-0.3562,-0.3576,-0.3576,-0.3576,0,-0.327,-0.3292,-0.3315,-0.3349,-0.3357,-0.3369,-0.3396,-0.3413,-0.3441,-0.3454,-0.3473,-0.3492,-0.3512,-0.3519,-0.3547,-0.3544,-0.3557,-0.357,-0.3571,-0.3574,-0.3582,-0.3574,-0.3563,-0.3563,-0.3578,-0.3578,-0.3577,0,-0.325,-0.3286,-0.3305,-0.3317,-0.3356,-0.3364,-0.3381,-0.3408,-0.3423,-0.3447,-0.3457,-0.3483,-0.3497,-0.3517,-0.3542,-0.3546,-0.3568,-0.3578,-0.358,-0.358,-0.3584,-0.3583,-0.3575,-0.3592,-0.3592,-0.3592,-0.3592,0,-0.3245,-0.3259,-0.3296,-0.3307,-0.3323,-0.3351,-0.3366,-0.3385,-0.3409,-0.3426,-0.3449,-0.3464,-0.3497,-0.3516,-0.3537,-0.3557,-0.3563,-0.3575,-0.358,-0.3573,-0.3571,-0.3582,-0.3582,-0.3592,-0.3592,-0.3592,-0.3592,0,-0.3226,-0.3251,-0.3273,-0.3308,-0.3317,-0.3327,-0.3358,-0.3371,-0.3391,-0.3411,-0.3418,-0.345,-0.3474,-0.3502,-0.3535,-0.3549,-0.3567,-0.3575,-0.3558,-0.3561,-0.3562,-0.3561,-0.356,-0.3562,-0.3577,-0.3577,-0.3577,0,-0.3221,-0.3231,-0.3268,-0.328,-0.3296,-0.3315,-0.333,-0.3358,-0.3373,-0.3405,-0.3413,-0.3439,-0.3461,-0.3498,-0.3525,-0.3551,-0.3559,-0.3557,-0.3563,-0.3556,-0.356,-0.3559,-0.356,-0.3555,-0.3555,-0.3555,-0.3555,0,-0.3209,-0.3222,-0.3242,-0.3267,-0.3284,-0.3305,-0.3327,-0.3336,-0.3368,-0.3384,-0.3408,-0.3425,-0.3459,-0.3484,-0.3513,-0.3532,-0.3549,-0.3552,-0.3554,-0.3547,-0.3537,-0.3543,-0.3553,-0.3552,-0.3553,-0.3553,-0.3553,-0.3553,-0.3197,-0.3208,-0.3235,-0.3257,-0.3277,-0.3297,-0.331,-0.3332,-0.3353,-0.3382,-0.3397,-0.3421,-0.3449,-0.349,-0.3508,-0.3528,-0.3534,-0.3537,-0.3537,-0.3538,-0.3536,-0.3533,-0.3533,-0.3534,-0.3534,-0.3534,-0.3534,0,-0.3187,-0.3206,-0.3226,-0.3256,-0.3273,-0.3287,-0.3313,-0.3327,-0.3347,-0.3371,-0.3392,-0.3421,-0.3445,-0.3474,-0.3501,-0.3512,-0.352,-0.3518,-0.3518,-0.3522,-0.3529,-0.3524,-0.3511,-0.3511,-0.3511,-0.3511,-0.3511,-0.3511,-0.3184,-0.3203,-0.3219,-0.3248,-0.3267,-0.329,-0.3303,-0.3323,-0.3342,-0.3372,-0.3393,-0.3411,-0.3438,-0.3467,-0.3491,-0.3499,-0.3508,-0.3503,-0.3513,-0.3519,-0.3521,-0.3523,-0.3519,-0.3504,-0.3504,-0.3505,-0.3505,-0.3505]}]]